{"data":{"norad_id":61522,"epoch":"2026-09-20T11:00:08.758080Z","epoch_age_seconds":195666,"freshness":"STALE","line1":"1 61522U 24183P   26263.45843470  .00059569  00000+0  13959-2 0  9990","line2":"2 61522  53.1561 313.3958 0006044 352.9040   7.1879 15.41533159109535","mean_motion":15.41533159,"eccentricity":0.0006044,"inclination_deg":53.1561,"raan_deg":313.3958,"arg_perigee_deg":352.904,"mean_anomaly_deg":7.1879,"bstar":0.0013959,"rev_number":10953,"period_min":93.413494973675,"perigee_km":437.46194532318,"apogee_km":445.70562380756,"semimajor_km":6819.7207845654,"source":"CELESTRAK","updated_at":"2026-09-22T09:00:49.357655Z"}}